Wind_Speed
41 38 33 29 28 25 23 20 19 18 16 15 12 12 11 11 9 7 8 4 4 5 18 12 6 9 7 7 1 7 2 2 2 2 2 3 4 5 5 6 7 6 6 7 8 10 12 11 7 3 1 8 17 9
35 38 38 36 31 27 24 21 20 18 15 13 15 14 11 12 9 7 5 4 6 9 9 10 12 12 7 5 4 3 5 5 4 1 1 3 3 4 4 4 5 4 2 3 4 5 8 5 4 5 4 4 9 12
27 32 37 35 32 28 28 28 23 23 20 18 16 13 11 10 9 12 11 5 3 10 18 15 15 19 19 16 10 3 2 2 4 7 3 2 3 3 2 4 7 5 10 2 4 5 10 20 12 6 5 5 7 6
21 30 34 33 32 31 30 29 28 25 22 19 13 11 9 9 10 14 13 4 2 6 5 5 2 6 7 11 10 16 16 10 10 7 3 2 1 2 3 5 7 5 10 5 7 7 10 6 15 16 9 11 13 10
21 31 32 32 31 34 34 29 27 24 18 13 12 9 9 9 10 11 11 7 2 5 5 13 12 9 10 13 12 11 12 9 6 3 4 3 3 4 10 9 14 9 4 2 8 12 7 15 19 17 16 15 18 19
15 18 29 30 29 27 30 26 22 21 15 13 11 10 9 8 8 10 3 4 5 3 4 3 5 6 19 14 10 11 11 12 12 4 4 7 19 11 4 5 9 17 24 28 24 25 25 27 26 23 19 18 16 17
22 20 18 22 23 26 27 24 19 18 15 14 11 9 8 8 10 3 3 4 9 4 3 5 5 9 18 14 14 15 13 15 16 14 13 17 16 13 5 15 20 23 25 30 35 36 29 30 30 32 30 30 29 26
24 26 25 25 29 25 20 21 20 17 15 12 10 9 8 9 6 1 3 2 5 2 4 3 4 6 17 9 7 14 18 15 10 13 8 11 13 14 9 19 31 33 35 34 33 33 36 38 38 38 38 36 36 36
26 25 24 23 24 24 22 19 20 18 15 14 13 11 9 7 2 4 4 3 5 2 3 4 3 3 11 13 14 14 18 4 13 9 14 8 7 8 8 22 28 34 34 33 33 32 26 20 23 28 27 32 32 31
25 24 25 24 24 25 23 22 20 19 17 15 14 4 2 4 5 2 2 2 1 3 5 5 9 6 13 12 4 6 8 5 5 8 19 10 14 31 32 30 28 27 19 22 22 17 17 25 25 28 28 26 27 35
25 23 23 24 24 22 21 22 20 20 19 9 3 2 6 6 4 2 2 4 6 4 7 8 15 9 11 7 5 6 3 3 4 6 4 9 12 15 34 31 17 12 15 18 22 22 19 21 27 30 33 29 34 25
19 18 18 18 19 20 20 19 20 16 6 3 4 7 4 3 3 2 3 5 5 4 10 7 12 16 4 5 5 6 2 3 5 5 3 5 8 10 13 5 6 11 10 13 15 15 16 17 19 26 31 27 29 35
16 16 15 16 17 17 16 17 16 8 9 5 0 4 4 3 2 4 4 3 3 4 10 17 4 3 2 3 1 2 3 4 5 4 5 2 17 20 22 24 22 19 17 18 18 19 22 25 27 25 28 27 28 30
15 14 13 13 14 13 14 14 10 5 4 1 3 1 3 4 5 5 6 6 8 7 4 6 2 1 2 1 2 2 4 4 4 5 9 1 11 21 20 17 26 29 26 29 27 29 30 32 29 30 31 25 27 25
13 12 10 10 10 11 11 11 9 7 1 2 3 3 6 12 14 13 15 9 12 14 5 3 1 6 3 1 3 4 4 5 5 4 1 8 15 16 19 22 20 20 25 28 34 35 35 34 33 34 26 26 30 30
13 11 10 7 7 8 9 8 6 2 2 4 6 6 11 2 11 12 10 16 23 11 11 6 4 3 4 3 5 6 4 5 4 3 14 17 18 20 20 23 26 28 30 34 31 28 26 24 25 24 27 32 32 28
9 6 8 8 7 6 7 7 4 3 4 4 8 15 19 14 15 14 11 18 12 11 3 4 3 6 3 3 4 4 9 10 17 30 23 23 23 27 32 34 31 32 29 26 28 33 33 31 28 27 29 28 24 22
8 6 6 6 7 6 2 0 2 4 6 11 11 16 18 18 14 16 14 10 10 6 10 5 5 5 4 9 11 10 23 29 27 30 31 30 34 44 38 35 30 25 30 35 30 33 32 27 24 25 23 19 16 14
6 3 3 2 3 3 2 4 5 4 6 12 15 17 17 16 14 11 12 10 9 11 6 4 4 3 5 11 16 23 25 28 32 34 38 40 40 37 33 32 34 34 30 30 30 28 24 21 19 19 15 14 16 12
2 2 3 3 5 1 3 3 6 6 5 6 15 15 12 13 11 10 10 11 12 8 3 3 5 16 19 21 22 25 31 33 33 37 42 40 38 35 33 33 32 31 29 26 24 20 18 18 14 15 14 14 6 28
1 1 1 1 2 5 4 4 5 7 9 7 9 12 11 11 8 5 5 5 1 1 3 8 19 21 24 32 37 38 37 34 35 33 37 41 39 36 37 33 30 27 25 25 20 15 19 14 10 7 11 12 23 29
0 1 2 4 3 3 5 5 6 9 6 9 12 4 5 6 6 5 4 1 2 3 5 15 25 31 32 32 30 28 29 29 29 30 31 32 36 36 35 34 32 27 21 17 13 16 18 7 6 9 22 26 33 31
2 3 3 3 3 3 5 7 3 3 3 3 4 2 3 3 3 5 3 1 2 12 19 19 23 25 24 22 22 23 19 24 27 29 32 34 35 33 30 23 18 17 14 12 11 14 7 5 19 29 28 33 29 30
3 2 2 2 3 3 4 2 3 3 4 3 2 3 2 4 4 4 2 3 14 25 26 26 28 29 25 26 27 28 29 29 32 33 31 29 26 20 14 8 10 8 10 9 5 3 12 23 27 36 39 42 37 33
1 3 3 4 4 3 3 2 3 3 2 2 2 3 2 2 1 2 3 8 20 27 29 28 29 28 26 29 27 27 25 30 28 29 19 15 15 6 7 8 6 6 5 7 6 13 14 25 37 40 48 40 37 30
3 5 6 3 4 3 2 3 2 2 2 2 2 4 3 0 3 3 4 19 24 29 31 30 31 31 28 29 28 32 29 29 21 20 21 18 12 9 9 7 3 3 2 7 18 19 24 39 47 49 46 35 33 32
3 4 7 6 4 4 4 7 7 3 2 4 3 5 4 5 4 3 16 23 24 26 24 26 28 29 28 24 24 26 29 23 18 18 20 23 21 20 17 8 11 9 13 26 28 32 44 40 50 43 29 35 37 32
7 5 4 6 7 9 3 3 3 4 3 5 3 5 2 3 2 8 17 23 21 23 24 25 25 29 28 22 24 27 32 28 28 27 23 29 30 20 23 22 16 18 36 39 47 48 41 35 30 32 36 33 31 33
5 6 7 4 4 3 4 4 3 1 1 2 2 1 5 3 4 10 20 20 22 19 24 28 29 29 28 26 24 28 30 33 34 31 25 26 22 22 21 27 30 41 41 42 34 26 27 30 34 35 33 33 31 32
10 7 4 3 3 4 3 4 5 4 4 4 5 4 4 2 3 7 20 21 21 21 24 25 29 30 30 32 31 30 32 30 29 25 21 22 14 14 23 26 35 38 28 29 31 36 33 34 34 33 34 35 34 34
5 11 3 3 7 12 8 4 1 1 7 4 4 7 7 4 3 10 20 22 18 20 21 25 26 28 29 31 29 32 34 32 32 25 17 17 20 19 23 23 27 24 22 24 25 26 23 26 27 28 29 30 33 34
2 2 3 5 4 6 4 9 6 2 3 10 8 6 4 3 3 10 21 23 21 24 18 22 24 25 25 24 23 23 24 28 31 26 15 13 16 15 15 23 22 24 25 26 24 24 26 27 27 29 30 30 31 27
3 4 2 1 2 2 5 2 6 6 5 9 9 7 7 4 5 9 12 18 20 21 18 17 17 21 18 22 22 22 21 23 24 28 18 22 15 14 16 22 21 21 25 24 21 24 23 22 21 23 28 29 27 24
Wind_Direction
222 221 221 216 220 217 220 220 223 224 223 225 238 271 283 283 271 240 194 215 247 258 270 300 309 339 308 292 340 359 24 150 154 164 239 249 259 239 247 251 245 202 181 210 219 234 264 8 32 33 259 32 24 15
224 223 219 220 216 216 215 217 220 219 218 239 262 263 266 274 264 227 214 268 285 261 251 254 258 224 242 251 317 312 302 328 11 173 100 336 342 343 344 285 312 279 186 219 192 209 171 359 172 132 324 305 353 3
227 224 216 216 209 209 213 216 220 229 234 262 255 246 255 258 244 201 181 157 283 285 303 272 262 256 233 241 225 217 268 356 34 7 310 250 286 23 323 297 331 313 13 11 18 18 345 337 306 266 321 315 347 327
222 217 211 211 207 207 210 217 232 225 234 238 235 236 239 241 225 204 184 143 5 301 277 356 185 179 207 220 241 223 241 286 294 313 293 230 224 324 273 278 282 286 325 309 285 318 328 55 349 346 352 324 317 286
223 213 211 208 214 215 219 218 219 216 212 216 218 221 221 213 209 204 189 133 25 257 310 308 299 205 222 222 231 231 246 254 252 258 232 237 219 274 260 268 266 264 263 274 280 312 305 304 321 318 300 284 282 294
205 213 210 210 217 211 206 202 193 192 203 190 189 189 180 185 175 156 188 212 196 228 277 283 274 239 217 219 197 210 233 246 231 243 261 251 253 277 256 254 247 282 293 297 289 296 300 297 298 300 305 308 309 296
177 175 188 193 190 188 179 179 190 171 171 170 175 178 184 176 168 143 175 189 179 176 253 278 262 231 201 211 215 231 240 241 244 251 234 249 265 272 263 264 275 278 281 284 284 291 296 295 296 297 293 290 290 292
142 143 145 154 158 166 172 159 162 160 157 157 166 161 157 159 169 48 230 176 200 270 287 281 267 207 189 200 223 231 227 227 213 229 235 235 251 231 243 250 261 268 268 267 269 272 273 277 278 279 283 283 284 278
129 133 138 141 140 141 145 146 141 142 145 145 141 134 125 138 124 192 258 285 185 192 309 286 270 332 171 226 238 236 208 223 225 221 229 228 229 226 232 249 258 266 268 273 278 274 274 280 288 293 298 270 263 275
113 119 124 128 130 131 134 136 141 140 140 138 134 93 147 190 183 181 71 102 214 225 231 259 263 264 304 312 273 248 224 221 243 247 246 231 247 248 252 266 269 271 270 281 293 303 291 291 289 276 277 286 282 270
107 114 121 126 130 136 142 142 142 140 138 129 147 124 139 148 115 149 215 205 201 226 220 243 229 248 268 250 264 267 302 304 283 273 252 265 265 273 277 275 250 264 277 282 275 273 275 276 283 288 294 286 274 277
115 122 125 128 133 138 142 144 142 133 156 140 104 125 129 161 159 216 222 211 194 240 198 214 226 211 256 21 23 358 280 287 253 286 255 249 267 338 357 300 264 293 290 295 292 290 273 284 287 278 279 278 286 279
109 115 121 127 134 141 150 154 150 128 142 115 60 182 170 164 164 224 217 205 221 243 3 352 56 26 87 49 37 283 273 248 262 236 243 293 24 8 350 343 335 326 314 305 291 274 288 278 283 280 290 278 282 280
103 105 110 127 145 150 156 159 164 143 85 152 195 344 219 208 213 211 250 282 278 281 252 221 305 116 213 118 299 240 241 258 250 258 268 46 5 342 309 317 322 290 286 294 290 294 291 281 279 276 285 278 275 272
100 100 103 112 130 145 149 152 158 148 88 272 223 233 217 234 264 259 234 277 276 253 252 144 232 242 200 249 216 261 255 239 241 283 64 310 314 313 294 302 295 291 288 288 297 291 287 281 279 281 273 268 278 279
88 82 87 103 131 144 144 150 155 133 251 239 235 254 287 335 305 305 296 288 272 291 238 166 237 226 198 218 201 219 246 243 278 286 340 331 321 318 312 308 302 295 291 289 286 288 291 293 283 279 277 280 281 271
87 89 98 86 98 130 154 126 168 226 255 242 238 238 247 259 243 262 248 254 274 244 224 150 263 227 153 233 237 228 248 270 313 314 320 326 326 322 317 307 303 300 292 291 292 294 297 298 286 280 276 275 270 264
76 101 95 101 87 88 72 49 293 258 245 251 276 278 282 282 291 253 242 279 311 264 263 251 277 200 235 255 265 281 291 298 304 310 310 310 310 311 308 303 301 301 300 304 299 298 300 297 288 278 274 270 274 264
119 96 89 140 166 160 235 219 213 271 266 279 280 281 284 293 303 321 339 324 289 274 257 246 247 222 241 273 290 298 307 308 306 303 301 301 303 303 300 297 298 301 303 300 302 305 304 297 283 271 257 267 275 265
245 268 262 236 202 224 259 209 199 253 271 283 289 286 298 297 307 319 303 308 311 317 280 250 261 279 291 303 306 303 298 298 299 299 298 300 305 309 309 309 307 308 306 310 318 322 317 314 276 263 245 243 249 150
92 39 265 217 195 228 272 280 238 253 284 285 295 329 295 294 297 302 304 333 68 272 292 282 290 297 292 291 294 298 297 293 288 286 287 293 304 302 303 308 314 314 311 313 314 320 324 306 255 237 217 199 167 152
234 148 270 248 243 239 250 248 271 302 293 286 306 282 287 294 288 267 217 212 252 267 271 296 300 300 301 302 306 306 303 301 298 297 301 300 295 300 301 300 299 302 307 311 304 317 325 239 232 188 152 147 141 129
182 216 246 256 251 253 261 282 270 267 269 281 276 245 232 246 276 325 39 294 314 332 327 325 333 335 324 321 321 326 321 314 304 301 300 297 297 299 302 307 304 298 306 305 303 308 297 185 154 148 144 130 130 138
278 217 241 247 243 264 287 263 245 264 270 260 263 273 307 333 20 13 351 319 309 338 349 357 350 344 341 338 329 326 323 319 309 312 318 313 312 320 341 351 319 302 270 289 312 145 166 158 156 147 139 137 136 133
229 225 213 243 235 236 247 244 230 250 259 273 292 293 282 274 77 38 346 318 332 343 353 358 356 351 333 340 341 351 355 343 336 325 351 342 336 22 18 4 285 266 234 217 236 199 171 160 149 151 139 132 134 138
259 210 201 241 183 202 272 300 263 275 304 324 277 260 290 74 54 6 326 328 336 347 350 351 347 342 346 353 356 357 352 4 15 44 40 32 29 7 354 12 24 28 175 185 173 168 154 140 133 135 136 137 142 144
259 234 211 227 228 195 234 249 260 281 300 14 11 17 14 25 12 334 339 359 346 0 5 8 7 358 352 4 3 10 9 31 32 33 45 42 45 53 52 74 76 92 135 144 148 145 132 134 137 140 140 144 143 142
235 262 236 189 214 224 266 97 47 31 23 352 51 32 42 360 313 311 340 351 349 359 9 16 18 20 23 20 16 17 22 33 46 45 63 54 43 41 77 101 120 123 133 130 129 125 126 126 124 129 135 139 139 143
244 249 231 226 227 92 62 53 81 103 65 45 82 122 162 188 13 9 2 5 6 6 14 19 26 25 27 37 38 35 32 27 33 33 41 28 57 61 73 84 105 115 120 123 124 120 121 124 131 132 133 136 140 145
195 192 256 106 99 92 61 116 158 187 163 131 128 131 132 127 63 10 5 14 11 11 19 22 26 27 25 26 30 40 34 38 29 30 32 36 47 72 106 101 114 116 114 107 114 121 120 118 125 131 134 137 137 141
213 174 201 28 104 135 146 142 152 224 182 179 159 83 118 140 131 354 8 14 10 13 16 23 27 27 24 25 28 25 26 28 26 28 36 35 74 112 115 107 125 131 123 125 129 128 126 130 126 130 137 137 140 141
180 260 34 133 143 144 175 184 180 209 123 116 80 97 114 126 80 355 3 6 8 11 17 21 22 22 27 22 33 36 25 24 18 20 29 45 70 110 134 128 132 131 129 131 135 138 136 126 129 134 137 140 140 134
97 60 43 13 200 225 123 338 209 195 168 109 94 81 89 63 46 5 355 359 11 12 20 16 22 23 25 29 32 34 32 35 30 26 47 39 51 112 137 126 131 134 136 139 139 142 142 146 146 147 146 145 142 143
Height
1450 1457 1464 1470 1476 1481 1486 1490 1493 1496 1499 1502 1505 1507 1508 1509 1510 1512 1511 1513 1514 1512 1504 1506 1505 1505 1505 1505 1506 1504 1504 1504 1509 1513 1512 1506 1500 1494 1492 1489 1492 1494 1502 1502 1502 1505 1505 1482 1480 1489 1494 1490 1490 1488
1442 1450 1457 1463 1470 1476 1481 1486 1490 1493 1497 1500 1502 1503 1504 1505 1506 1508 1510 1511 1511 1511 1506 1501 1501 1501 1503 1505 1505 1504 1504 1504 1504 1504 1504 1504 1500 1495 1494 1499 1480 1492 1487 1490 1489 1489 1480 1481 1484 1485 1487 1487 1489 1488
1435 1442 1450 1456 1464 1471 1476 1481 1486 1490 1493 1496 1498 1500 1501 1502 1503 1506 1507 1508 1508 1506 1499 1498 1496 1498 1499 1501 1503 1505 1503 1503 1504 1505 1504 1504 1505 1498 1502 1497 1491 1484 1483 1487 1486 1480 1480 1481 1481 1480 1483 1487 1487 1487
1429 1436 1444 1451 1458 1465 1471 1476 1481 1485 1488 1492 1494 1495 1497 1499 1500 1503 1504 1506 1507 1507 1503 1494 1493 1494 1494 1497 1499 1501 1502 1502 1504 1505 1504 1502 1503 1499 1498 1495 1492 1491 1486 1483 1481 1478 1479 1479 1483 1483 1484 1485 1485 1485
1425 1432 1439 1446 1453 1460 1465 1471 1476 1480 1485 1488 1491 1494 1496 1497 1499 1501 1504 1505 1506 1509 1503 1496 1493 1492 1494 1495 1496 1498 1499 1500 1503 1504 1501 1500 1498 1500 1495 1492 1481 1486 1485 1489 1483 1481 1481 1479 1480 1481 1480 1481 1481 1480
1422 1428 1434 1442 1448 1455 1462 1468 1473 1479 1483 1486 1490 1493 1495 1496 1498 1500 1504 1504 1503 1503 1505 1498 1490 1487 1488 1490 1493 1495 1496 1498 1500 1500 1497 1493 1494 1496 1495 1486 1475 1480 1479 1479 1476 1477 1477 1474 1474 1476 1476 1475 1475 1474
1420 1426 1431 1438 1445 1453 1460 1466 1472 1477 1482 1485 1490 1492 1494 1496 1498 1499 1501 1501 1502 1503 1503 1497 1487 1482 1484 1487 1489 1491 1492 1493 1495 1496 1490 1491 1490 1492 1488 1479 1474 1476 1476 1474 1471 1470 1469 1468 1466 1467 1469 1468 1468 1467
1422 1427 1433 1440 1447 1455 1461 1466 1472 1477 1482 1486 1490 1492 1494 1496 1498 1500 1500 1500 1502 1503 1502 1498 1488 1483 1483 1484 1486 1486 1487 1488 1487 1487 1485 1484 1483 1483 1476 1467 1468 1467 1465 1464 1463 1464 1462 1461 1459 1458 1458 1458 1458 1457
1430 1434 1439 1445 1451 1457 1464 1469 1474 1479 1483 1487 1490 1492 1494 1496 1498 1498 1500 1500 1501 1505 1500 1496 1489 1483 1482 1481 1480 1480 1480 1481 1478 1474 1474 1478 1472 1468 1459 1460 1460 1457 1455 1454 1454 1453 1452 1452 1451 1450 1448 1447 1447 1447
1440 1443 1447 1451 1456 1461 1467 1472 1477 1480 1484 1488 1491 1493 1494 1496 1497 1499 1500 1502 1502 1501 1500 1494 1488 1483 1482 1481 1479 1478 1473 1471 1468 1462 1461 1460 1453 1451 1450 1449 1448 1448 1447 1446 1445 1444 1444 1442 1444 1443 1440 1439 1439 1437
1448 1453 1456 1459 1462 1467 1472 1475 1478 1481 1486 1489 1491 1492 1494 1495 1496 1499 1500 1501 1498 1496 1492 1484 1482 1482 1480 1479 1476 1474 1470 1467 1466 1458 1459 1454 1448 1443 1442 1441 1440 1439 1441 1442 1440 1436 1435 1435 1435 1434 1432 1430 1432 1429
1457 1461 1463 1465 1467 1471 1475 1478 1481 1483 1486 1489 1490 1492 1494 1495 1497 1498 1495 1491 1490 1485 1478 1476 1475 1477 1478 1475 1475 1475 1473 1469 1464 1453 1451 1445 1440 1440 1437 1434 1435 1437 1438 1436 1434 1431 1432 1430 1429 1429 1426 1424 1423 1420
1464 1465 1467 1469 1470 1474 1478 1480 1483 1485 1487 1488 1490 1492 1493 1495 1496 1494 1485 1481 1479 1475 1476 1476 1475 1475 1476 1477 1478 1477 1475 1468 1458 1453 1446 1440 1443 1441 1443 1442 1439 1437 1434 1433 1431 1428 1426 1424 1423 1421 1417 1415 1413 1409
1468 1469 1470 1472 1475 1478 1480 1482 1485 1487 1487 1489 1489 1491 1489 1488 1485 1481 1478 1476 1477 1475 1476 1478 1478 1477 1477 1477 1476 1477 1470 1463 1455 1445 1438 1443 1441 1442 1441 1438 1437 1432 1430 1429 1426 1422 1419 1416 1413 1410 1408 1406 1406 1406
1471 1473 1474 1476 1478 1480 1482 1483 1485 1487 1488 1488 1487 1488 1480 1478 1475 1474 1474 1474 1473 1472 1473 1475 1477 1478 1476 1477 1475 1472 1466 1456 1444 1437 1438 1437 1436 1435 1434 1432 1429 1426 1423 1421 1417 1413 1409 1405 1402 1400 1400 1399 1398 1396
1476 1477 1478 1479 1480 1481 1482 1484 1487 1488 1488 1488 1484 1477 1473 1474 1474 1473 1472 1470 1469 1470 1471 1471 1472 1471 1471 1470 1468 1464 1454 1441 1438 1434 1433 1432 1431 1430 1429 1426 1423 1419 1415 1410 1406 1403 1399 1396 1394 1391 1390 1390 1388 1387
1479 1479 1480 1481 1481 1482 1484 1486 1488 1488 1486 1480 1475 1472 1473 1471 1469 1468 1466 1466 1465 1466 1465 1467 1470 1463 1462 1463 1456 1446 1440 1435 1433 1431 1429 1429 1427 1425 1422 1418 1413 1409 1403 1400 1396 1393 1390 1386 1383 1381 1379 1378 1378 1378
1479 1481 1482 1482 1483 1484 1486 1486 1487 1486 1481 1476 1474 1470 1468 1466 1464 1463 1466 1466 1464 1463 1462 1461 1458 1456 1454 1446 1441 1438 1436 1433 1431 1428 1425 1423 1419 1415 1412 1407 1403 1399 1394 1391 1387 1383 1379 1376 1374 1372 1372 1371 1372 1373
1482 1483 1483 1484 1485 1486 1487 1487 1488 1484 1476 1472 1469 1468 1466 1462 1461 1459 1459 1458 1458 1457 1457 1455 1453 1448 1445 1441 1439 1435 1433 1432 1426 1421 1417 1414 1411 1406 1401 1397 1393 1389 1385 1381 1377 1373 1370 1368 1367 1367 1367 1368 1369 1371
1483 1483 1484 1484 1485 1486 1485 1484 1484 1481 1474 1470 1467 1465 1463 1462 1460 1458 1457 1456 1455 1455 1454 1451 1446 1444 1441 1438 1437 1433 1429 1427 1422 1413 1406 1401 1400 1396 1392 1388 1384 1380 1376 1372 1369 1366 1363 1361 1362 1363 1364 1366 1367 1365
1483 1484 1484 1485 1485 1486 1485 1481 1479 1476 1471 1468 1465 1463 1461 1458 1456 1455 1454 1453 1453 1453 1452 1448 1444 1441 1438 1433 1430 1427 1422 1419 1414 1409 1401 1392 1389 1387 1383 1379 1376 1372 1370 1367 1365 1361 1360 1358 1359 1362 1364 1361 1368 1371
1483 1484 1485 1485 1485 1484 1482 1480 1478 1474 1473 1467 1465 1463 1461 1458 1455 1453 1453 1453 1453 1452 1451 1447 1441 1436 1430 1425 1420 1417 1412 1408 1402 1398 1392 1387 1381 1377 1374 1371 1369 1366 1365 1364 1362 1360 1358 1357 1358 1362 1364 1368 1372 1376
1484 1484 1484 1483 1483 1482 1480 1476 1475 1473 1470 1467 1463 1461 1459 1457 1455 1453 1453 1453 1453 1451 1447 1441 1435 1430 1425 1420 1415 1410 1406 1401 1395 1388 1382 1379 1374 1371 1368 1365 1364 1362 1361 1358 1359 1359 1359 1360 1360 1363 1369 1375 1379 1384
1483 1483 1483 1482 1481 1479 1477 1475 1474 1472 1469 1466 1463 1459 1456 1456 1456 1455 1455 1453 1451 1446 1441 1436 1431 1425 1420 1416 1410 1404 1398 1393 1386 1381 1376 1371 1367 1364 1361 1360 1359 1358 1358 1357 1355 1356 1359 1361 1364 1369 1374 1380 1386 1391
1484 1483 1482 1480 1479 1478 1475 1473 1470 1468 1465 1463 1461 1459 1457 1456 1457 1458 1459 1456 1450 1444 1439 1434 1430 1425 1420 1414 1408 1401 1395 1389 1383 1377 1370 1368 1364 1362 1361 1360 1357 1356 1356 1357 1357 1359 1362 1363 1365 1368 1379 1386 1392 1398
1480 1478 1478 1474 1474 1475 1471 1469 1466 1464 1461 1462 1461 1458 1455 1453 1459 1462 1461 1456 1450 1445 1440 1435 1429 1423 1418 1413 1406 1399 1391 1385 1379 1377 1373 1369 1366 1364 1361 1358 1356 1355 1354 1355 1356 1359 1363 1365 1371 1377 1387 1393 1400 1404
1477 1472 1471 1470 1470 1470 1470 1467 1466 1465 1460 1459 1458 1459 1459 1462 1465 1466 1462 1457 1452 1447 1440 1436 1431 1424 1420 1414 1407 1401 1393 1386 1382 1381 1378 1375 1369 1365 1362 1359 1357 1357 1357 1359 1361 1364 1370 1376 1383 1389 1394 1400 1407 1412
1471 1468 1465 1465 1466 1464 1462 1459 1461 1462 1463 1463 1463 1468 1470 1471 1471 1467 1463 1458 1453 1448 1443 1437 1431 1426 1422 1416 1410 1404 1397 1394 1390 1385 1381 1380 1376 1372 1367 1364 1363 1364 1365 1368 1373 1379 1384 1389 1394 1398 1403 1408 1412 1418
1464 1462 1462 1459 1458 1458 1460 1461 1464 1465 1465 1465 1466 1467 1470 1470 1469 1467 1464 1459 1454 1450 1444 1438 1432 1427 1423 1419 1415 1409 1404 1400 1396 1391 1389 1384 1384 1382 1380 1377 1376 1378 1381 1385 1389 1392 1396 1399 1402 1407 1411 1415 1420 1425
1460 1458 1457 1454 1454 1458 1462 1462 1462 1463 1464 1464 1465 1467 1468 1469 1468 1467 1464 1459 1455 1451 1447 1442 1437 1433 1428 1423 1418 1414 1410 1407 1404 1401 1397 1394 1392 1392 1392 1391 1390 1393 1395 1397 1400 1402 1406 1409 1412 1416 1420 1425 1429 1433
1453 1455 1455 1455 1456 1458 1460 1461 1461 1461 1462 1463 1464 1464 1466 1467 1468 1467 1464 1460 1457 1453 1449 1444 1440 1437 1432 1429 1425 1420 1416 1413 1409 1407 1404 1401 1399 1400 1400 1401 1402 1404 1406 1408 1410 1412 1415 1419 1422 1425 1428 1432 1436 1440
1452 1452 1453 1455 1457 1458 1458 1459 1460 1460 1460 1462 1463 1464 1465 1466 1468 1467 1465 1462 1459 1455 1452 1448 1444 1440 1438 1435 1432 1430 1426 1421 1418 1413 1410 1405 1405 1405 1406 1410 1411 1413 1414 1416 1418 1420 1423 1426 1429 1432 1435 1439 1443 1446
1453 1454 1455 1455 1456 1455 1457 1458 1457 1458 1458 1460 1463 1464 1466 1467 1470 1470 1467 1463 1460 1457 1454 1451 1448 1445 1442 1439 1437 1434 1431 1427 1424 1420 1417 1414 1411 1411 1412 1415 1417 1419 1421 1423 1425 1428 1430 1433 1435 1438 1441 1445 1449 1452